Location: Southlake
(32.9412°N, 97.1342°W)
Time: 13:58:40
(UTC+00:00)

X-37B - Visible Passes

Search period start: 02 December 2022 00:00
Search period end: 12 December 2022 00:00
Orbit: 277 x 277 km, 45.0° (Epoch: 01 November)

Date Brightness Start Highest point End Pass type
(mag) Time Alt. Az. Time Alt. Az. Time Alt. Az.
04 Dec 2.4 00:58:28 10° SSW 00:59:20 18° SSW 00:59:20 18° SSW visible
05 Dec 1.9 00:58:55 10° SW 01:00:20 30° WSW 01:00:20 30° WSW visible
06 Dec 2.1 00:59:45 10° W 01:01:14 27° WNW 01:01:14 27° WNW visible
07 Dec 2.6 01:00:55 10° WNW 01:02:05 17° NW 01:02:05 17° NW visible
08 Dec 3.0 01:02:27 10° NW 01:02:51 11° NW 01:02:51 11° NW visible
